Helicity
68 54 69 68 41 21 25 17 45 20 60 118 91 191 203 214 207 299 361 404 430 410 339 286 282 211 269 303 325 292 261 216 190 226 262 247 212 177 174 201 208 182 122 99
82 45 54 36 29 24 21 33 62 156 153 193 225 298 222 257 234 271 356 389 386 398 412 323 246 240 258 206 219 201 164 163 176 171 187 158 92 100 156 148 121 109 116 145
37 73 40 26 58 28 69 61 97 135 173 231 371 316 313 280 280 287 258 191 208 165 115 107 102 128 166 191 161 97 39 50 54 73 71 86 93 102 120 109 101 121 130 152
54 74 51 65 50 34 106 132 147 124 141 116 141 194 221 241 236 221 189 127 83 -14 -21 -51 -1 80 89 63 45 56 69 70 71 72 63 58 64 83 64 60 56 104 139 141
45 44 55 49 45 61 63 106 104 107 140 187 209 214 216 249 239 180 123 67 23 -34 -20 -19 27 0 23 40 61 55 59 64 35 49 43 31 18 59 119 149 195 220 222 253
74 52 62 50 61 67 77 84 119 128 154 186 172 217 190 243 216 170 87 36 -13 -18 -90 -29 27 51 58 65 71 64 72 68 68 83 94 116 141 173 210 238 247 217 236 177
84 91 95 82 55 71 71 80 92 102 121 121 153 176 117 68 203 86 14 9 -3 -8 -18 52 148 152 148 133 118 127 121 119 129 173 222 253 253 213 181 189 223 237 176 160
64 83 80 82 46 37 68 48 53 22 18 61 125 110 114 123 122 11 30 43 74 113 270 278 252 208 197 183 173 171 167 186 185 189 190 214 196 205 233 213 205 180 176 166
29 48 70 69 50 26 39 71 41 79 88 91 96 136 124 165 192 194 183 209 206 240 360 435 369 305 270 225 203 194 200 232 257 230 231 215 185 196 198 173 161 137 168 199
31 53 59 75 48 70 35 8 24 43 46 50 70 110 138 150 151 157 179 270 359 425 461 423 360 309 272 236 221 225 280 313 239 211 190 186 200 183 169 175 171 208 195 233
44 39 59 63 58 34 35 13 25 23 24 45 66 64 103 165 180 219 287 362 428 433 418 431 379 275 224 186 225 232 286 257 214 196 184 169 175 168 152 157 169 181 246 297
60 50 79 49 63 45 18 14 27 41 30 63 88 68 91 155 229 319 322 331 386 453 427 390 301 224 168 184 128 194 208 179 131 98 79 76 62 77 94 99 129 264 349 389
78 76 81 79 71 53 29 38 58 63 67 67 110 73 151 275 357 341 418 397 445 398 345 272 211 142 144 95 178 191 149 102 66 66 62 48 50 65 68 78 161 276 236 192
76 67 23 1 14 44 55 69 78 94 90 87 109 124 163 289 411 425 420 395 374 330 269 218 188 126 103 104 180 126 93 72 68 60 69 61 70 68 72 76 116 146 177 167
81 48 62 74 83 62 57 74 92 107 123 164 84 148 170 298 407 406 397 357 315 262 223 219 198 149 110 143 98 93 68 61 50 85 72 74 57 51 71 97 120 129 125 119
114 54 98 83 107 96 59 68 65 78 114 139 149 147 169 281 356 356 294 279 268 251 213 162 104 120 91 66 81 72 59 59 70 73 79 67 78 84 94 96 100 103 77 96
96 86 113 69 103 100 58 74 126 121 147 181 206 143 260 253 275 268 238 233 205 162 122 111 82 33 45 71 66 70 78 99 106 99 85 96 107 110 111 105 93 114 120 169
92 132 145 97 135 119 75 97 86 146 151 158 178 217 234 214 175 203 196 204 164 127 96 48 47 40 52 82 102 103 133 143 146 124 134 138 136 134 120 109 104 110 127 73
115 133 161 146 131 134 132 139 210 184 119 142 167 172 152 209 266 180 155 165 135 87 64 87 91 95 125 131 132 161 166 169 162 179 170 158 148 137 121 112 116 118 104 101
175 193 178 182 169 116 85 129 170 185 153 149 187 173 193 288 265 177 179 214 138 122 185 162 156 187 186 170 177 183 184 198 195 182 167 145 140 123 103 108 105 112 123 152
140 173 152 175 154 135 85 184 252 250 102 116 100 144 265 270 218 199 263 204 219 300 272 258 254 200 159 175 216 198 190 195 191 172 151 145 115 108 97 105 109 110 144 181
102 134 145 218 215 161 162 299 203 121 170 111 161 213 248 216 221 240 247 339 346 308 273 242 214 182 176 194 195 187 195 180 162 158 159 145 123 125 122 117 111 131 146 151
157 147 130 148 127 146 65 124 123 167 180 176 231 279 238 258 257 265 355 373 323 255 231 193 177 169 147 167 180 190 179 158 145 159 170 162 145 129 115 117 137 141 140 129
141 148 190 220 142 112 98 116 148 176 183 231 266 280 289 287 288 374 363 308 235 207 195 165 151 139 143 159 181 182 154 134 138 138 150 165 149 108 107 125 144 144 122 111
110 150 133 148 114 133 137 144 159 212 249 277 289 269 279 344 356 357 317 227 199 174 149 131 126 140 145 164 166 143 129 124 134 130 127 139 149 121 122 114 112 90 86 115
156 172 199 166 120 158 129 127 175 246 242 257 339 365 356 379 320 264 229 178 149 128 129 140 141 146 154 163 153 132 124 121 133 116 105 125 135 132 136 116 100 59 58 88
Wind_Speed
28 28 27 29 30 33 34 39 51 52 31 22 24 26 25 20 15 15 19 21 24 25 28 28 29 28 28 27 24 23 28 29 28 33 36 39 38 42 44 52 55 55 54 58
36 34 34 26 30 36 34 25 13 14 10 14 18 20 21 20 19 19 22 25 28 29 31 32 34 34 33 30 31 32 32 34 36 36 38 39 42 44 48 51 54 56 58 60
41 39 35 31 29 35 28 23 13 11 13 13 12 24 23 23 21 24 26 27 28 29 30 31 31 33 34 35 35 34 33 34 36 39 42 44 44 45 49 53 55 61 60 63
30 36 35 31 29 31 27 28 16 11 13 9 30 25 24 18 17 21 23 25 26 26 29 30 31 35 35 35 35 36 38 41 42 41 45 48 47 52 52 54 56 60 61 61
38 29 30 30 26 22 16 22 21 15 15 20 28 29 20 9 9 12 17 20 22 25 28 30 33 33 34 35 37 36 38 40 42 45 47 48 50 52 51 54 60 65 64 65
28 30 29 33 29 26 19 16 22 25 22 23 21 24 1 4 5 10 12 14 17 20 22 28 32 35 39 42 41 40 41 46 48 48 51 52 53 52 53 59 67 72 72 71
26 28 32 28 21 28 20 14 19 22 22 17 26 21 16 23 12 10 11 10 11 15 21 27 36 41 41 42 45 44 48 55 55 55 58 56 53 52 57 62 72 78 77 72
29 29 30 32 27 27 25 19 15 20 22 13 31 21 29 9 19 20 12 10 12 24 30 33 36 37 40 43 47 50 54 57 59 61 61 57 55 57 60 64 77 77 77 69
36 34 32 29 29 30 28 24 23 23 26 18 21 27 27 16 14 14 10 13 17 17 24 29 33 37 41 46 51 54 56 58 62 66 68 66 65 67 71 76 80 78 69 58
34 24 30 32 26 21 20 26 27 30 23 20 19 16 17 14 15 12 12 15 20 19 22 27 31 35 40 47 51 56 58 62 68 71 72 74 75 76 79 81 80 70 59 54
36 33 38 29 23 23 25 27 30 30 29 24 25 21 19 14 14 10 17 17 18 19 20 24 30 36 41 46 52 55 59 62 68 72 76 80 82 86 88 86 76 66 58 57
38 27 24 28 33 30 26 27 28 27 24 27 26 25 36 15 14 16 19 19 19 20 21 25 28 34 39 46 50 56 59 65 70 73 78 82 83 89 91 91 76 63 60 59
32 29 10 25 32 30 24 26 27 29 28 22 25 29 33 22 18 16 14 15 17 20 22 27 31 32 40 47 51 56 62 67 71 77 82 86 89 90 91 85 68 57 55 58
25 20 10 20 14 20 18 20 23 24 23 26 19 28 18 16 12 12 13 15 17 21 26 28 32 34 41 48 52 58 63 68 75 80 83 87 87 86 84 77 65 61 64 66
24 18 20 22 26 25 23 20 19 16 25 25 30 16 17 10 8 8 11 15 19 23 28 31 36 38 44 48 54 59 64 69 73 78 80 83 82 82 82 77 70 65 62 57
30 22 22 21 34 37 26 21 25 26 27 28 32 31 26 15 14 11 12 17 23 29 33 36 43 41 46 49 54 58 64 67 69 76 77 79 83 85 83 79 74 62 58 51
27 20 22 27 36 38 33 26 21 29 33 30 29 33 18 18 15 14 14 21 28 33 36 40 42 40 42 46 51 59 63 66 69 74 75 80 81 83 83 78 66 57 53 43
25 25 30 33 34 35 40 44 32 32 37 34 38 28 19 19 17 18 20 26 32 35 37 39 37 41 43 47 53 61 66 67 71 75 76 78 82 85 81 72 59 51 50 35
29 26 34 37 36 46 41 36 35 36 40 31 31 27 25 25 31 32 23 29 33 33 37 38 35 45 48 53 60 68 71 70 72 77 77 79 82 82 74 66 55 49 45 42
33 31 34 37 44 48 42 37 34 38 52 25 25 24 29 29 46 44 26 30 34 36 42 42 47 50 54 63 65 69 71 75 78 76 74 77 81 74 67 60 53 45 40 36
33 36 35 37 45 49 40 34 34 44 50 22 21 27 30 37 42 44 31 32 37 40 41 44 51 57 62 62 69 78 78 76 73 69 70 76 73 67 62 52 47 42 37 36
31 33 38 41 49 63 31 30 38 43 37 33 30 32 30 32 38 38 36 36 36 37 43 49 56 63 63 68 77 80 78 72 70 67 71 72 65 61 56 51 44 38 33 34
43 36 44 37 46 45 29 39 37 39 48 42 35 33 31 36 39 37 37 35 36 40 46 52 60 65 68 70 73 78 75 75 74 73 71 63 58 54 52 45 39 36 34 36
43 38 49 50 52 50 47 49 49 45 45 42 36 32 31 36 35 36 32 33 37 43 51 58 63 70 72 72 72 74 76 75 74 77 69 55 52 49 47 41 36 35 35 38
45 38 49 56 59 61 57 50 46 42 44 41 32 30 31 35 34 30 31 35 42 48 55 61 68 72 75 73 72 75 76 73 73 75 65 51 46 43 41 36 35 37 37 35
43 50 55 65 56 55 56 48 44 42 38 32 31 34 35 32 28 28 32 38 45 53 59 66 71 75 76 74 77 77 74 70 69 70 62 48 39 35 30 32 37 39 41 36
Wind_Direction
264 260 258 246 248 244 252 264 231 238 271 282 298 311 289 308 18 9 2 9 5 1 353 355 3 11 10 6 4 7 358 5 7 2 359 356 351 350 349 344 344 345 346 344
228 229 223 245 248 240 249 282 309 343 4 320 326 315 306 325 345 20 34 34 33 31 25 31 35 29 20 17 18 10 4 3 2 360 356 350 344 341 341 344 344 345 344 344
216 219 233 242 257 242 256 273 315 344 354 10 354 318 310 329 14 34 36 41 35 38 27 26 22 27 22 10 9 18 17 7 1 352 348 346 345 343 339 339 341 341 343 343
235 236 240 254 270 267 272 273 317 51 357 10 298 308 314 348 23 28 41 44 42 42 35 37 20 24 24 15 11 10 2 357 356 358 351 347 345 340 340 341 343 343 343 342
225 247 254 265 297 313 337 305 307 349 346 329 310 319 321 35 46 51 61 51 46 38 42 40 26 22 17 12 7 5 360 358 358 352 350 347 344 343 344 344 343 341 341 341
259 261 273 266 281 300 329 343 325 326 329 323 321 324 310 161 142 103 75 58 44 15 24 23 19 9 3 0 7 3 1 356 351 349 346 343 341 341 341 339 337 336 333 331
270 274 268 285 321 302 328 357 342 330 325 339 334 340 356 168 140 121 104 72 41 23 13 11 1 355 358 358 357 356 351 346 347 346 344 344 344 343 339 336 334 332 332 329
262 262 270 267 287 301 316 342 47 123 136 76 336 358 348 111 131 138 106 79 29 354 344 348 355 360 359 359 356 352 350 349 348 348 347 348 346 341 338 336 335 332 331 329
237 241 248 249 260 258 275 323 14 23 3 45 21 4 15 58 98 110 94 27 9 13 9 6 5 2 359 354 351 351 351 352 348 345 345 344 341 338 336 334 333 332 333 336
240 263 245 235 251 286 339 50 4 348 65 62 65 60 47 101 122 104 50 44 36 35 26 16 12 7 4 356 355 354 354 352 349 347 346 344 341 340 337 335 332 333 334 334
234 241 229 253 288 302 314 332 355 22 42 59 44 48 37 144 128 78 41 55 56 50 36 22 9 5 2 1 359 359 356 354 352 350 348 346 343 341 338 336 333 329 330 333
236 259 261 266 262 286 327 350 7 35 49 29 25 21 1 88 89 81 66 61 50 40 28 15 8 360 359 356 355 354 354 352 350 349 347 346 344 342 341 339 338 338 336 338
251 260 327 277 279 300 347 355 8 18 21 35 21 13 15 47 56 62 62 49 36 26 15 4 359 356 351 348 349 349 348 347 348 346 345 345 344 344 344 343 343 340 337 332
273 293 356 112 32 352 18 9 4 8 16 10 7 3 21 24 32 33 32 29 20 7 358 354 351 350 347 345 345 344 344 345 345 345 344 345 345 345 344 343 341 336 333 333
287 308 316 332 327 339 352 354 356 358 348 351 349 347 350 357 10 19 16 11 2 353 348 348 345 344 343 341 340 341 342 343 344 344 344 345 345 345 343 342 339 337 338 339
286 308 315 327 317 320 334 338 334 335 338 337 340 340 353 10 13 6 355 350 344 342 341 341 339 339 337 338 339 340 341 342 343 344 344 344 344 344 343 342 341 339 338 342
297 311 313 317 317 320 324 324 328 333 335 338 334 338 356 350 346 343 341 338 336 336 336 337 336 336 337 337 338 339 340 341 342 342 343 344 344 344 343 343 343 346 347 351
302 305 310 313 321 314 321 316 320 323 328 331 333 340 339 341 348 342 336 334 333 334 335 335 335 336 336 337 339 339 340 340 341 341 342 343 344 343 344 345 346 347 352 345
304 304 306 306 307 315 318 318 320 320 320 326 334 341 342 345 342 331 329 334 334 334 335 336 338 339 340 340 339 339 338 339 340 340 341 343 343 342 344 344 344 345 346 347
307 307 301 307 307 309 321 321 325 326 315 315 327 332 334 338 326 327 326 333 335 334 339 342 342 343 343 341 341 340 340 339 338 340 341 342 343 343 344 347 348 351 356 358
308 306 297 301 304 310 313 319 326 315 321 333 324 324 324 321 328 339 344 335 339 343 346 348 346 343 342 345 343 339 338 338 339 340 341 342 345 347 348 350 352 353 356 358
306 304 303 305 304 305 313 316 310 319 327 323 316 317 313 319 331 334 337 340 343 346 346 345 343 342 343 343 341 340 340 341 340 340 339 341 345 349 352 353 355 359 3 2
304 303 307 299 308 316 312 312 311 317 317 317 313 316 316 321 326 331 336 340 343 344 344 344 342 341 341 342 343 341 342 343 341 339 337 339 344 349 353 355 358 0 2 359
308 308 305 307 308 304 306 307 310 312 312 317 316 317 319 322 326 330 336 340 342 342 342 342 341 340 341 342 343 343 342 342 341 341 340 341 345 351 355 358 1 2 360 355
312 314 310 306 307 308 309 309 310 310 313 317 319 318 318 325 327 332 336 339 340 340 341 341 341 340 340 342 342 343 343 343 344 345 346 346 349 352 359 5 5 360 357 356
309 307 305 305 312 311 313 316 314 310 310 312 315 321 324 325 328 335 339 341 340 340 341 340 340 340 341 341 341 342 344 344 343 345 347 344 346 352 359 4 1 1 359 359